Hourly Data Report for November 07, 2019

OTTAWA INTL A
ONTARIO
Current Station Operator: NAVCAN

45°19'00.000" N
75°40'00.000" W
114.90 m
6106001
71628
YOW

Download Data

Hourly Data (November 2019)
Hourly Data Report for November 7, 2019
TIME Temp Definition
°C
Dew Point Definition
°C
Rel Hum Definition
%
Wind Dir Definition
10's deg

Wind Spd Definition
km/h
Visibility Definition
km
Stn Press Definition
kPa
Hmdx Definition


Wind Chill Definition


Weather Definition


00:00 1.0 -1.3 84 21 12 16.1 100.78     Snow
01:00 0.9 -0.8 88 21 13 16.1 100.74     Snow
02:00 0.7 -1.0 88 21 9 24.1 100.69     Snow
03:00 0.7 -0.7 90 21 8 24.1 100.69     Snow
04:00
05:00 -0.2 -0.8 96 31 23 2.4 100.67   -6 Snow
06:00 -0.8 -1.5 95 31 21 4.0 100.69   -6 Snow
07:00 -1.6 -2.5 94 34 21 1.6 100.72   -7 Snow
08:00 -2.0 -2.9 94 29 14 3.2 100.76   -7 Snow
09:00 -1.9 -2.7 95 26 12 1.6 100.76   -6 Snow
10:00 -1.5 -2.5 92 27 10 16.1 100.76   -5 Cloudy
11:00 -0.7 -2.5 88 28 10 24.1 100.75   -4 LegendNANA
12:00 -0.8 -4.0 79 33 17 24.1 100.70   -6 LegendNANA
13:00 -0.9 -5.0 74 31 18 24.1 100.64   -6 Mostly Cloudy
14:00 -1.0 -6.7 65 30 17 24.1 100.60   -6 LegendNANA
15:00 -0.9 -6.6 66 26 17 24.1 100.60   -6 LegendNANA
16:00 -1.2 -7.4 63 31 18 24.1 100.60   -6 Mostly Cloudy
17:00 -1.9 -8.2 63 31 18 24.1 100.65   -7 LegendNANA
18:00 -2.1 -9.1 59 33 18 24.1 100.71   -8 LegendNANA
19:00 -2.4 -11.2 51 33 19 24.1 100.75   -8 Cloudy
20:00 -3.0 -10.6 56 31 14 24.1 100.73   -8 LegendNANA
21:00 -3.5 -12.7 49 32 25 24.1 100.73   -10 LegendNANA
22:00 -3.8 -10.5 60 33 20 24.1 100.71   -10 Mostly Cloudy
23:00 -4.4 -9.7 67 30 15 24.1 100.68   -10 LegendNANA

Notes on Data Quality.

Legend

  • E = Estimated
  • M = Missing
  • NA = Not Available*
  • [empty] = Indicates an unobserved value
Date modified: